STARLINK-38033, 69739

Orbit data source: Space-Track

STARLINK-38033, 69739 is a payload satellite owned by SpaceX/Seattle (US) in SSO that was launched on Thu, 02 Jul 2026 UTC via an FALCON 9 launch vehicle from the Air Force Western Test Range (AFWTR). Payload-class satellites include a variety of spacecraft equipped with specific instruments for various scientific and technological missions. These include communications satellites like Starlink; space stations such as the ISS; scientific satellites like the Hubble; Earth observation satellites from companies like Planet Labs, Umbra, and HawkEye 360; GPS; miniature CubeSats for education and research; and military/defense satellites.

Loading next visibility...
Identifier
69739, 2026-150A
Orbit
SSO
Country
Flag of USUS
Related business
Manufacturer
SpaceX/Seattle
Mission
Operational spacecraft
Bus & Motor
STARLINK V2MO, Unknown motor
Mass
575 kg wet, ~530 kg dry
Launch date (UTC)
2026-07-02 (3 weeks ago)
Launch vehicle
FALCON 9
Launch site
Air Force Western Test Range (AFWTR)
Object type
Payload
Rocket body
Debris
Shape & HBR
Unknown shape, 17.7 m
Radar Cross Section
Large (>1 m²)

Expand to show TLE details & history
Last TLE update: 16 hours ago

TLE from 16 hours ago
0 STARLINK-38033
1 69739U 26150A   26202.54129743  .00482927  00000-0  23671-2 0  9998
2 69739  97.2845  41.2705 0000453 166.5961 193.5319 15.80978303  4320
Epoch: 2026-07-21T12:59Z
TLE epoch observation values (Epoch: 2026-07-21T12:59:28.097Z)
Latitude
-0.0001°
Longitude
-92.90607°
Altitude
331.144 km
Speed
7.71 km/s
True Right ascension
02h 45m 04s
True Declination
0° 00' 00"
Sunlit
Object was in daylight at epoch
Visualization orbit readout
Latitude
Unknown
Longitude
Unknown
Altitude
Unknown
Speed
Unknown
Apparent Right ascension
Unknown
Apparent Declination
Unknown
Sunlit
N/A
Visualization observer readout
Local Sidereal Time
18:27:37
Azimuth
Unknown
Elevation
Unknown
Doppler factor
Unknown
Orbital elements
Apogee altitude
324.856 km
Perigee altitude
324.249 km
Semi-major axis
6,702.69 km
Eccentricity
0.00005
Inclination
97.2845°
RAAN
41.2705°
Arg. of periapsis
166.5961°
True anomaly
193.53069°
Mean anomaly
193.5319°
Eccentric anomaly
193.53129°
Mean motion
3.95521 °/min
Orbital period
91.02 mins
BSTAR
0.0023671
Loading maneuver chart data...
Computing Atmospheric mass density...
Loading historical data...
Loading historical data...
Loading historical data...
Loading historical data...
Loading historical data...
Loading historical data...
Loading historical data...

Documentation

Showing up to 5 results
|